Hourly Weather Bolshie Kirilly

Today, 18 June, Friday

Time Temperature Precipitation Wind Pressure Humidity
00:00 +15°C° 0 mm 2 mps 752 mmHg 86%
01:00 +15°C° 0 mm 2 mps 752 mmHg 87%
02:00 +15°C° 0 mm 1 mps 752 mmHg 88%
03:00 +15°C° 0 mm 2 mps 752 mmHg 88%
04:00 +15°C° 0 mm 2 mps 752 mmHg 87%
05:00 +16°C° 0 mm 2 mps 752 mmHg 87%
06:00 +18°C° 0 mm 2 mps 753 mmHg 79%
07:00 +19°C° 0 mm 2 mps 753 mmHg 71%
08:00 +21°C° 0 mm 3 mps 753 mmHg 63%
09:00 +22°C° 0 mm 3 mps 753 mmHg 58%
10:00 +24°C° 0 mm 3 mps 753 mmHg 54%
11:00 +25°C° 0 mm 3 mps 753 mmHg 49%
12:00 +26°C° 0 mm 3 mps 753 mmHg 48%
13:00 +26°C° 0 mm 3 mps 752 mmHg 47%
14:00 +27°C° 0 mm 3 mps 752 mmHg 46%
15:00 +27°C° 0 mm 3 mps 752 mmHg 50%
16:00 +26°C° 0 mm 2 mps 752 mmHg 54%
17:00 +26°C° 0 mm 2 mps 752 mmHg 58%
18:00 +24°C° 0 mm 2 mps 752 mmHg 66%
19:00 +21°C° 0 mm 2 mps 752 mmHg 74%
20:00 +19°C° 0 mm 2 mps 752 mmHg 82%
21:00 +18°C° 0 mm 2 mps 752 mmHg 86%
22:00 +17°C° 0 mm 2 mps 752 mmHg 89%
23:00 +16°C° 0 mm 2 mps 752 mmHg 92%

Tomorrow, 19 June, Saturday

Time Temperature Precipitation Wind Pressure Humidity
00:00 +16°C° 0 mm 2 mps 752 mmHg 93%
01:00 +15°C° 0 mm 2 mps 753 mmHg 94%
02:00 +15°C° 0 mm 2 mps 753 mmHg 95%
03:00 +15°C° 0 mm 2 mps 753 mmHg 94%
04:00 +15°C° 0 mm 2 mps 753 mmHg 93%
05:00 +16°C° 0 mm 2 mps 753 mmHg 92%
06:00 +18°C° 0 mm 2 mps 753 mmHg 85%
07:00 +19°C° 0 mm 2 mps 753 mmHg 77%
08:00 +21°C° 0 mm 3 mps 753 mmHg 70%
09:00 +22°C° 0 mm 3 mps 752 mmHg 66%
10:00 +24°C° 0 mm 3 mps 752 mmHg 61%
11:00 +26°C° 0 mm 3 mps 752 mmHg 56%
12:00 +26°C° 0 mm 3 mps 752 mmHg 55%
13:00 +27°C° 0 mm 3 mps 751 mmHg 53%
14:00 +27°C° 0 mm 2 mps 751 mmHg 51%
15:00 +27°C° 0 mm 2 mps 751 mmHg 54%
16:00 +27°C° 0 mm 2 mps 751 mmHg 58%
17:00 +27°C° 0 mm 2 mps 751 mmHg 61%
18:00 +25°C° 0 mm 2 mps 750 mmHg 68%
19:00 +24°C° 0 mm 2 mps 750 mmHg 74%
20:00 +21°C° 0 mm 2 mps 750 mmHg 81%
21:00 +20°C° 0 mm 2 mps 750 mmHg 85%
22:00 +19°C° 0 mm 2 mps 751 mmHg 89%
23:00 +19°C° 0 mm 2 mps 751 mmHg 93%

Day after tomorrow, 20 June, Sunday

Time Temperature Precipitation Wind Pressure Humidity
00:00 +18°C° 0 mm 2 mps 751 mmHg 94%
01:00 +18°C° 0 mm 2 mps 751 mmHg 95%
02:00 +17°C° 0 mm 2 mps 751 mmHg 96%
03:00 +17°C° 0 mm 2 mps 751 mmHg 95%
04:00 +18°C° 0 mm 2 mps 751 mmHg 94%
05:00 +18°C° 0 mm 2 mps 751 mmHg 93%
06:00 +19°C° 0 mm 2 mps 751 mmHg 85%
07:00 +21°C° 0 mm 2 mps 751 mmHg 77%
08:00 +24°C° 0 mm 3 mps 751 mmHg 69%
09:00 +25°C° 0 mm 3 mps 750 mmHg 64%
10:00 +26°C° 0 mm 3 mps 750 mmHg 60%
11:00 +27°C° 0 mm 3 mps 750 mmHg 56%
12:00 +28°C° 0 mm 3 mps 750 mmHg 54%
13:00 +28°C° 0 mm 3 mps 749 mmHg 53%
14:00 +29°C° 0 mm 3 mps 749 mmHg 52%
15:00 +29°C° 0 mm 2 mps 749 mmHg 54%
16:00 +29°C° 0 mm 2 mps 749 mmHg 57%
17:00 +28°C° 0 mm 2 mps 748 mmHg 60%
18:00 +26°C° 0 mm 2 mps 748 mmHg 67%
19:00 +24°C° 0 mm 2 mps 748 mmHg 75%
20:00 +21°C° 0 mm 2 mps 748 mmHg 82%
21:00 +20°C° 0 mm 2 mps 748 mmHg 85%
22:00 +19°C° 0 mm 2 mps 748 mmHg 88%
23:00 +18°C° 0 mm 2 mps 748 mmHg 91%

21 June, Monday

Time Temperature Precipitation Wind Pressure Humidity
00:00 +18°C° 0 mm 2 mps 748 mmHg 91%
01:00 +18°C° 0 mm 2 mps 748 mmHg 91%
02:00 +18°C° 0 mm 2 mps 748 mmHg 91%
03:00 +18°C° 0 mm 2 mps 748 mmHg 90%
04:00 +18°C° 0 mm 2 mps 748 mmHg 89%
05:00 +18°C° 0 mm 3 mps 748 mmHg 88%
06:00 +20°C° 0 mm 3 mps 748 mmHg 81%
07:00 +22°C° 0 mm 4 mps 748 mmHg 75%
08:00 +23°C° 0 mm 4 mps 747 mmHg 68%
09:00 +26°C° 0 mm 5 mps 747 mmHg 63%
10:00 +27°C° 0 mm 5 mps 747 mmHg 59%
11:00 +28°C° 0 mm 5 mps 747 mmHg 54%
12:00 +29°C° 0 mm 5 mps 747 mmHg 55%
13:00 +29°C° 0 mm 5 mps 747 mmHg 55%
14:00 +30°C° 0 mm 5 mps 746 mmHg 55%
15:00 +29°C° 0 mm 5 mps 746 mmHg 58%
16:00 +29°C° 0 mm 4 mps 746 mmHg 61%
17:00 +29°C° 0 mm 4 mps 746 mmHg 64%
18:00 +27°C° 0 mm 4 mps 746 mmHg 70%
19:00 +26°C° 0 mm 4 mps 746 mmHg 76%
20:00 +24°C° 0 mm 3 mps 746 mmHg 82%
21:00 +22°C° 0 mm 3 mps 746 mmHg 86%
22:00 +22°C° 0 mm 3 mps 746 mmHg 90%
23:00 +21°C° 0 mm 3 mps 746 mmHg 94%

22 June, Tuesday

Time Temperature Precipitation Wind Pressure Humidity
00:00 +20°C° 0 mm 3 mps 746 mmHg 95%
01:00 +20°C° 0 mm 3 mps 746 mmHg 95%
02:00 +19°C° 0 mm 3 mps 746 mmHg 96%
03:00 +20°C° 0 mm 3 mps 746 mmHg 94%
04:00 +20°C° 0 mm 3 mps 746 mmHg 93%
05:00 +20°C° 0 mm 3 mps 746 mmHg 91%
06:00 +22°C° 0 mm 3 mps 747 mmHg 83%
07:00 +23°C° 0 mm 4 mps 747 mmHg 75%
08:00 +26°C° 0 mm 4 mps 747 mmHg 67%
09:00 +28°C° 0 mm 5 mps 747 mmHg 62%
10:00 +29°C° 0 mm 5 mps 747 mmHg 57%
11:00 +30°C° 0 mm 5 mps 747 mmHg 52%
12:00 +32°C° 0 mm 5 mps 747 mmHg 51%
13:00 +33°C° 0 mm 5 mps 746 mmHg 50%
14:00 +33°C° 0 mm 5 mps 746 mmHg 49%
15:00 +33°C° 0 mm 5 mps 746 mmHg 52%
16:00 +32°C° 0 mm 5 mps 746 mmHg 56%
17:00 +30°C° 0 mm 4 mps 746 mmHg 60%
18:00 +29°C° 0 mm 4 mps 747 mmHg 67%
19:00 +27°C° 0 mm 4 mps 747 mmHg 74%
20:00 +25°C° 0 mm 3 mps 747 mmHg 82%
21:00 +24°C° 0 mm 3 mps 747 mmHg 86%
22:00 +22°C° 0 mm 3 mps 747 mmHg 90%
23:00 +21°C° 0 mm 2 mps 747 mmHg 95%

23 June, Wednesday

Time Temperature Precipitation Wind Pressure Humidity
00:00 +21°C° 0 mm 2 mps 747 mmHg 95%
01:00 +21°C° 0 mm 2 mps 747 mmHg 95%
02:00 +20°C° 0 mm 2 mps 747 mmHg 95%
03:00 +21°C° 0 mm 2 mps 747 mmHg 94%
04:00 +21°C° 0 mm 2 mps 747 mmHg 93%
05:00 +21°C° 0 mm 2 mps 748 mmHg 92%
06:00 +24°C° 0 mm 3 mps 748 mmHg 85%
07:00 +26°C° 0 mm 3 mps 748 mmHg 78%
08:00 +27°C° 0 mm 4 mps 748 mmHg 71%
09:00 +29°C° 0 mm 4 mps 748 mmHg 65%
10:00 +30°C° 0 mm 4 mps 748 mmHg 59%
11:00 +32°C° 0 mm 4 mps 748 mmHg 53%
12:00 +33°C° 0 mm 4 mps 747 mmHg 51%
13:00 +34°C° 0 mm 4 mps 747 mmHg 48%
14:00 +34°C° 0 mm 3 mps 747 mmHg 45%
15:00 +34°C° 0 mm 3 mps 747 mmHg 49%
16:00 +33°C° 0 mm 3 mps 747 mmHg 53%
17:00 +33°C° 0 mm 3 mps 747 mmHg 58%
18:00 +30°C° 0 mm 3 mps 747 mmHg 65%
19:00 +28°C° 0 mm 3 mps 747 mmHg 73%
20:00 +26°C° 0 mm 3 mps 747 mmHg 81%
21:00 +25°C° 0 mm 3 mps 747 mmHg 84%
22:00 +24°C° 0 mm 3 mps 747 mmHg 87%
23:00 +22°C° 0 mm 3 mps 747 mmHg 91%
Show more